Time,TemperatureF,DewpointF,PressureIn,WindDirection,WindDirectionDegrees,WindSpeedMPH,WindSpeedGustMPH,Humidity,HourlyPrecipIn,Conditions,Clouds,dailyrainin,SoftwareType,DateUTC
2013-03-21 00:00:00,40.4,24.0,29.55,SSW,202,2.3,8.4,52,0.00,,,0.00,Rainwise IP-100,2013-03-21 04:00:00,
2013-03-21 00:02:00,40.3,24.0,29.56,SSW,202,2.6,8.4,52,0.00,,,0.00,Rainwise IP-100,2013-03-21 04:02:00,
2013-03-21 00:08:00,40.0,24.0,29.55,SSW,202,1.2,4.2,53,0.00,,,0.00,Rainwise IP-100,2013-03-21 04:08:00,
2013-03-21 00:09:00,39.9,24.0,29.55,SSW,202,1.2,4.2,53,0.00,,,0.00,Rainwise IP-100,2013-03-21 04:09:00,
2013-03-21 00:14:00,39.7,26.0,29.56,SSW,202,0.0,6.8,54,0.00,,,0.00,Rainwise IP-100,2013-03-21 04:14:00,
2013-03-21 00:19:00,39.6,26.0,29.57,SSW,202,0.0,4.2,55,0.00,,,0.00,Rainwise IP-100,2013-03-21 04:19:00,
2013-03-21 00:24:00,39.6,26.0,29.58,SSW,202,0.0,3.5,55,0.00,,,0.00,Rainwise IP-100,2013-03-21 04:24:00,
2013-03-21 00:29:00,39.5,26.0,29.57,SSW,202,1.9,2.8,56,0.00,,,0.00,Rainwise IP-100,2013-03-21 04:29:00,
2013-03-21 00:34:00,39.3,24.0,29.57,SSW,202,2.3,3.7,56,0.00,,,0.00,Rainwise IP-100,2013-03-21 04:34:00,
2013-03-21 00:39:00,39.0,26.0,29.57,SSW,202,1.9,3.3,57,0.00,,,0.00,Rainwise IP-100,2013-03-21 04:39:00,
2013-03-21 00:44:00,38.8,26.0,29.57,SSW,202,1.4,4.2,58,0.00,,,0.00,Rainwise IP-100,2013-03-21 04:44:00,
2013-03-21 00:49:00,38.7,26.0,29.57,SSW,202,0.0,6.1,58,0.00,,,0.00,Rainwise IP-100,2013-03-21 04:49:00,
2013-03-21 00:54:00,38.6,26.0,29.57,SSW,202,3.0,4.4,59,0.00,,,0.00,Rainwise IP-100,2013-03-21 04:54:00,
2013-03-21 00:59:00,38.4,26.0,29.56,SSW,202,3.3,5.4,59,0.00,,,0.00,Rainwise IP-100,2013-03-21 04:59:00,
2013-03-21 01:04:00,38.3,26.0,29.57,SSW,202,2.3,4.2,60,0.00,,,0.00,Rainwise IP-100,2013-03-21 05:04:00,
2013-03-21 01:10:00,38.2,26.0,29.57,SSW,202,0.0,6.1,60,0.00,,,0.00,Rainwise IP-100,2013-03-21 05:10:00,
2013-03-21 01:15:00,38.1,26.0,29.56,SSW,202,1.2,4.9,61,0.00,,,0.00,Rainwise IP-100,2013-03-21 05:15:00,
2013-03-21 01:20:00,38.0,26.0,29.55,SSW,202,2.3,5.4,61,0.00,,,0.00,Rainwise IP-100,2013-03-21 05:20:00,
2013-03-21 01:25:00,38.0,26.0,29.56,SSW,202,3.0,5.6,61,0.00,,,0.00,Rainwise IP-100,2013-03-21 05:25:00,
2013-03-21 01:30:00,38.1,26.0,29.56,SSW,202,1.4,3.0,61,0.00,,,0.00,Rainwise IP-100,2013-03-21 05:30:00,
2013-03-21 01:35:00,37.9,26.0,29.55,SSW,202,2.3,3.5,61,0.00,,,0.00,Rainwise IP-100,2013-03-21 05:35:00,
2013-03-21 01:40:00,37.7,26.0,29.55,SSW,202,1.4,6.3,62,0.00,,,0.00,Rainwise IP-100,2013-03-21 05:40:00,
2013-03-21 01:47:00,37.5,26.0,29.55,SSW,202,0.0,3.3,62,0.00,,,0.00,Rainwise IP-100,2013-03-21 05:47:00,
2013-03-21 01:52:00,37.3,26.0,29.55,SSW,202,1.2,1.6,63,0.00,,,0.00,Rainwise IP-100,2013-03-21 05:52:00,
2013-03-21 01:57:00,37.1,26.0,29.55,SSW,202,0.0,4.0,63,0.00,,,0.00,Rainwise IP-100,2013-03-21 05:57:00,
2013-03-21 02:02:00,37.1,26.0,29.56,SSW,202,1.4,2.8,63,0.00,,,0.00,Rainwise IP-100,2013-03-21 06:02:00,
2013-03-21 02:08:00,37.0,26.0,29.56,SSW,202,1.6,3.0,63,0.00,,,0.00,Rainwise IP-100,2013-03-21 06:08:00,
2013-03-21 02:13:00,36.9,26.0,29.57,SSW,202,0.0,3.0,63,0.00,,,0.00,Rainwise IP-100,2013-03-21 06:13:00,
2013-03-21 02:18:00,36.9,26.0,29.56,SSW,202,0.0,4.2,64,0.00,,,0.00,Rainwise IP-100,2013-03-21 06:18:00,
2013-03-21 02:23:00,36.9,26.0,29.56,SSW,202,1.2,3.5,64,0.00,,,0.00,Rainwise IP-100,2013-03-21 06:23:00,
2013-03-21 02:28:00,36.9,26.0,29.56,SSW,202,3.0,5.6,63,0.00,,,0.00,Rainwise IP-100,2013-03-21 06:28:00,
2013-03-21 02:33:00,37.0,26.0,29.56,SSW,202,0.0,4.9,63,0.00,,,0.00,Rainwise IP-100,2013-03-21 06:33:00,
2013-03-21 02:38:00,36.9,26.0,29.55,SSW,202,4.7,5.1,63,0.00,,,0.00,Rainwise IP-100,2013-03-21 06:38:00,
2013-03-21 02:43:00,36.8,26.0,29.55,SSW,202,0.0,5.1,63,0.00,,,0.00,Rainwise IP-100,2013-03-21 06:43:00,
2013-03-21 02:48:00,36.6,26.0,29.55,SSW,202,0.0,7.2,63,0.00,,,0.00,Rainwise IP-100,2013-03-21 06:48:00,
2013-03-21 02:53:00,36.6,26.0,29.54,SSW,202,2.3,4.7,63,0.00,,,0.00,Rainwise IP-100,2013-03-21 06:53:00,
2013-03-21 02:58:00,36.5,26.0,29.54,SSW,202,1.9,6.3,62,0.00,,,0.00,Rainwise IP-100,2013-03-21 06:58:00,
2013-03-21 03:03:00,36.4,24.0,29.54,SSW,202,2.6,3.7,62,0.00,,,0.00,Rainwise IP-100,2013-03-21 07:03:00,
2013-03-21 03:09:00,36.3,24.0,29.55,SSW,202,4.2,5.8,63,0.00,,,0.00,Rainwise IP-100,2013-03-21 07:09:00,
2013-03-21 03:14:00,36.2,24.0,29.54,SSW,202,2.6,6.5,63,0.00,,,0.00,Rainwise IP-100,2013-03-21 07:14:00,
2013-03-21 03:19:00,36.1,24.0,29.54,SSW,202,5.1,8.6,62,0.00,,,0.00,Rainwise IP-100,2013-03-21 07:19:00,
2013-03-21 03:24:00,36.0,24.0,29.54,SSW,202,4.9,9.8,62,0.00,,,0.00,Rainwise IP-100,2013-03-21 07:24:00,
2013-03-21 03:29:00,35.7,24.0,29.54,SSW,202,2.6,6.8,62,0.00,,,0.00,Rainwise IP-100,2013-03-21 07:29:00,
2013-03-21 03:34:00,35.6,24.0,29.54,SSW,202,3.7,6.8,62,0.00,,,0.00,Rainwise IP-100,2013-03-21 07:34:00,
2013-03-21 03:39:00,35.4,23.0,29.53,SSW,202,4.0,5.8,62,0.00,,,0.00,Rainwise IP-100,2013-03-21 07:39:00,
2013-03-21 03:44:00,35.2,24.0,29.53,SSW,202,3.5,8.6,63,0.00,,,0.00,Rainwise IP-100,2013-03-21 07:44:00,
2013-03-21 03:49:00,35.0,24.0,29.53,SSW,202,0.0,8.9,65,0.00,,,0.00,Rainwise IP-100,2013-03-21 07:49:00,
2013-03-21 03:54:00,34.6,24.0,29.53,SSW,202,0.0,4.7,67,0.00,,,0.00,Rainwise IP-100,2013-03-21 07:54:00,
2013-03-21 03:59:00,34.2,26.0,29.53,SSW,202,3.3,6.1,68,0.00,,,0.00,Rainwise IP-100,2013-03-21 07:59:00,
2013-03-21 04:04:00,34.0,26.0,29.53,SSW,202,4.0,6.5,70,0.00,,,0.00,Rainwise IP-100,2013-03-21 08:04:00,
2013-03-21 04:10:00,33.8,26.0,29.54,SSW,202,0.0,7.9,71,0.00,,,0.00,Rainwise IP-100,2013-03-21 08:10:00,
2013-03-21 04:15:00,33.7,28.0,29.54,SSW,202,5.6,8.9,73,0.00,,,0.00,Rainwise IP-100,2013-03-21 08:15:00,
2013-03-21 04:20:00,33.5,28.0,29.54,SSW,202,4.4,7.5,74,0.00,,,0.00,Rainwise IP-100,2013-03-21 08:20:00,
2013-03-21 04:25:00,33.3,26.0,29.54,SSW,202,1.2,5.6,75,0.00,,,0.00,Rainwise IP-100,2013-03-21 08:25:00,
2013-03-21 04:30:00,33.1,28.0,29.53,SSW,202,1.4,4.7,77,0.00,,,0.00,Rainwise IP-100,2013-03-21 08:30:00,
2013-03-21 04:35:00,32.8,28.0,29.54,SSW,202,0.0,4.9,80,0.00,,,0.00,Rainwise IP-100,2013-03-21 08:35:00,
2013-03-21 04:40:00,32.6,29.0,29.54,SSW,202,0.0,4.9,82,0.00,,,0.00,Rainwise IP-100,2013-03-21 08:40:00,
2013-03-21 04:45:00,32.4,28.0,29.54,SSW,202,1.2,3.5,83,0.00,,,0.00,Rainwise IP-100,2013-03-21 08:45:00,
2013-03-21 04:50:00,32.2,28.0,29.54,SSW,202,1.4,3.0,84,0.00,,,0.00,Rainwise IP-100,2013-03-21 08:50:00,
2013-03-21 04:55:00,32.1,28.0,29.54,SSW,202,0.0,3.7,85,0.00,,,0.00,Rainwise IP-100,2013-03-21 08:55:00,
2013-03-21 05:00:00,32.1,28.0,29.54,SSW,202,0.0,5.4,85,0.00,,,0.00,Rainwise IP-100,2013-03-21 09:00:00,
2013-03-21 05:05:00,32.0,28.0,29.54,SSW,202,1.9,2.8,85,0.00,,,0.00,Rainwise IP-100,2013-03-21 09:05:00,
2013-03-21 05:11:00,32.0,28.0,29.54,SSW,202,1.4,2.8,85,0.00,,,0.00,Rainwise IP-100,2013-03-21 09:11:00,
2013-03-21 05:16:00,32.0,28.0,29.54,SSW,202,0.0,2.6,84,0.00,,,0.00,Rainwise IP-100,2013-03-21 09:16:00,
2013-03-21 05:21:00,31.9,28.0,29.54,SSW,202,0.0,1.4,84,0.00,,,0.00,Rainwise IP-100,2013-03-21 09:21:00,
2013-03-21 05:26:00,31.9,28.0,29.55,SSW,202,0.0,2.1,83,0.00,,,0.00,Rainwise IP-100,2013-03-21 09:26:00,
2013-03-21 05:31:00,31.9,28.0,29.55,SSW,202,1.4,3.5,82,0.00,,,0.00,Rainwise IP-100,2013-03-21 09:31:00,
2013-03-21 05:36:00,32.1,26.0,29.55,SSW,202,0.0,3.7,79,0.00,,,0.00,Rainwise IP-100,2013-03-21 09:36:00,
2013-03-21 05:41:00,32.1,26.0,29.55,SSW,202,0.0,1.9,77,0.00,,,0.00,Rainwise IP-100,2013-03-21 09:41:00,
2013-03-21 05:46:00,32.1,26.0,29.55,SSW,202,0.0,4.0,76,0.00,,,0.00,Rainwise IP-100,2013-03-21 09:46:00,
2013-03-21 05:51:00,32.0,26.0,29.55,SSW,202,0.0,2.6,76,0.00,,,0.00,Rainwise IP-100,2013-03-21 09:51:00,
2013-03-21 05:56:00,31.9,26.0,29.54,SSW,202,0.0,1.4,75,0.00,,,0.00,Rainwise IP-100,2013-03-21 09:56:00,
2013-03-21 06:01:00,31.8,26.0,29.54,SSW,202,0.0,0.0,75,0.00,,,0.00,Rainwise IP-100,2013-03-21 10:01:00,
2013-03-21 06:06:00,31.7,24.0,29.55,SSW,202,1.2,1.4,74,0.00,,,0.00,Rainwise IP-100,2013-03-21 10:06:00,
2013-03-21 06:12:00,31.7,24.0,29.55,SSW,202,0.0,1.6,71,0.00,,,0.00,Rainwise IP-100,2013-03-21 10:12:00,
2013-03-21 06:17:00,31.7,24.0,29.55,SSW,202,0.0,0.0,70,0.00,,,0.00,Rainwise IP-100,2013-03-21 10:17:00,
2013-03-21 06:22:00,31.7,23.0,29.54,SSW,202,0.0,0.0,69,0.00,,,0.00,Rainwise IP-100,2013-03-21 10:22:00,
2013-03-21 06:27:00,31.7,24.0,29.55,SSW,202,0.0,0.0,70,0.00,,,0.00,Rainwise IP-100,2013-03-21 10:27:00,
2013-03-21 06:32:00,31.7,24.0,29.55,SSW,202,0.0,1.6,70,0.00,,,0.00,Rainwise IP-100,2013-03-21 10:32:00,
2013-03-21 06:37:00,31.8,23.0,29.55,SSW,202,1.2,2.8,68,0.00,,,0.00,Rainwise IP-100,2013-03-21 10:37:00,
2013-03-21 06:42:00,32.0,23.0,29.55,SSW,202,0.0,1.6,64,0.00,,,0.00,Rainwise IP-100,2013-03-21 10:42:00,
2013-03-21 06:47:00,32.4,21.0,29.55,SSW,202,2.8,5.1,61,0.00,,,0.00,Rainwise IP-100,2013-03-21 10:47:00,
2013-03-21 06:52:00,32.8,21.0,29.55,SSW,202,1.2,4.2,58,0.00,,,0.00,Rainwise IP-100,2013-03-21 10:52:00,
2013-03-21 06:57:00,32.8,21.0,29.55,SSW,202,3.0,3.3,56,0.00,,,0.00,Rainwise IP-100,2013-03-21 10:57:00,
2013-03-21 07:02:00,32.8,18.0,29.56,SSW,202,2.8,6.8,54,0.00,,,0.00,Rainwise IP-100,2013-03-21 11:02:00,
2013-03-21 07:07:00,32.8,18.0,29.56,SSW,202,1.6,6.1,53,0.00,,,0.00,Rainwise IP-100,2013-03-21 11:07:00,
2013-03-21 07:13:00,32.7,18.0,29.56,SSW,202,0.0,4.0,53,0.00,,,0.00,Rainwise IP-100,2013-03-21 11:13:00,
2013-03-21 07:18:00,32.7,18.0,29.56,SSW,202,0.0,5.1,53,0.00,,,0.00,Rainwise IP-100,2013-03-21 11:18:00,
2013-03-21 07:23:00,32.8,18.0,29.56,SSW,202,1.6,7.2,53,0.00,,,0.00,Rainwise IP-100,2013-03-21 11:23:00,
2013-03-21 07:28:00,32.8,18.0,29.56,SSW,202,0.0,5.4,53,0.00,,,0.00,Rainwise IP-100,2013-03-21 11:28:00,
2013-03-21 07:33:00,32.7,18.0,29.56,SSW,202,3.5,4.7,53,0.00,,,0.00,Rainwise IP-100,2013-03-21 11:33:00,
2013-03-21 07:39:00,32.5,18.0,29.57,SSW,202,2.1,3.7,53,0.00,,,0.00,Rainwise IP-100,2013-03-21 11:39:00,
2013-03-21 07:44:00,32.6,18.0,29.57,SSW,202,1.9,6.3,53,0.00,,,0.00,Rainwise IP-100,2013-03-21 11:44:00,
2013-03-21 07:49:00,32.6,18.0,29.56,SSW,202,3.3,5.4,53,0.00,,,0.00,Rainwise IP-100,2013-03-21 11:49:00,
2013-03-21 07:54:00,32.5,18.0,29.57,SSW,202,1.4,5.6,53,0.00,,,0.00,Rainwise IP-100,2013-03-21 11:54:00,
2013-03-21 07:59:00,32.5,18.0,29.57,SSW,202,2.3,8.9,52,0.00,,,0.00,Rainwise IP-100,2013-03-21 11:59:00,
2013-03-21 08:05:00,32.6,18.0,29.57,SSW,202,1.6,6.3,52,0.00,,,0.00,Rainwise IP-100,2013-03-21 12:05:00,
2013-03-21 08:10:00,32.6,18.0,29.57,SSW,202,0.0,5.4,52,0.00,,,0.00,Rainwise IP-100,2013-03-21 12:10:00,
2013-03-21 08:16:00,32.6,18.0,29.57,SSW,202,1.4,3.0,52,0.00,,,0.00,Rainwise IP-100,2013-03-21 12:16:00,
2013-03-21 08:21:00,32.6,18.0,29.57,SSW,202,3.0,5.6,52,0.00,,,0.00,Rainwise IP-100,2013-03-21 12:21:00,
2013-03-21 08:26:00,32.6,18.0,29.57,SSW,202,3.5,6.3,51,0.00,,,0.00,Rainwise IP-100,2013-03-21 12:26:00,
2013-03-21 08:32:00,32.4,16.0,29.56,SSW,202,1.4,4.9,49,0.00,,,0.00,Rainwise IP-100,2013-03-21 12:32:00,
2013-03-21 08:37:00,32.2,16.0,29.56,SSW,202,1.4,8.9,48,0.00,,,0.00,Rainwise IP-100,2013-03-21 12:37:00,
2013-03-21 08:42:00,32.2,16.0,29.56,SSW,202,2.6,5.6,48,0.00,,,0.00,Rainwise IP-100,2013-03-21 12:42:00,
2013-03-21 08:48:00,32.1,16.0,29.56,SSW,202,4.2,9.1,48,0.00,,,0.00,Rainwise IP-100,2013-03-21 12:48:00,
2013-03-21 08:53:00,32.0,14.0,29.56,SSW,202,0.0,8.4,47,0.00,,,0.00,Rainwise IP-100,2013-03-21 12:53:00,
2013-03-21 08:58:00,31.9,14.0,29.56,SSW,202,1.4,5.8,47,0.00,,,0.00,Rainwise IP-100,2013-03-21 12:58:00,
2013-03-21 09:03:00,31.9,16.0,29.56,SSW,202,3.5,6.5,48,0.00,,,0.00,Rainwise IP-100,2013-03-21 13:03:00,
2013-03-21 09:08:00,31.9,16.0,29.56,SSW,202,1.4,7.7,48,0.00,,,0.00,Rainwise IP-100,2013-03-21 13:08:00,
2013-03-21 09:14:00,31.9,16.0,29.56,SSW,202,1.2,6.1,48,0.00,,,0.00,Rainwise IP-100,2013-03-21 13:14:00,
2013-03-21 09:19:00,31.9,16.0,29.55,SSW,202,0.0,6.1,48,0.00,,,0.00,Rainwise IP-100,2013-03-21 13:19:00,
2013-03-21 09:24:00,31.9,16.0,29.55,SSW,202,1.2,9.8,48,0.00,,,0.00,Rainwise IP-100,2013-03-21 13:24:00,
2013-03-21 09:29:00,32.0,16.0,29.56,SSW,202,1.4,7.0,48,0.00,,,0.00,Rainwise IP-100,2013-03-21 13:29:00,
2013-03-21 09:34:00,32.0,16.0,29.55,SSW,202,2.8,9.8,48,0.00,,,0.00,Rainwise IP-100,2013-03-21 13:34:00,
2013-03-21 09:39:00,32.1,14.0,29.56,SSW,202,3.7,8.2,47,0.00,,,0.00,Rainwise IP-100,2013-03-21 13:39:00,
2013-03-21 09:44:00,32.3,14.0,29.55,SSW,202,2.3,8.9,46,0.00,,,0.00,Rainwise IP-100,2013-03-21 13:44:00,
2013-03-21 09:49:00,32.6,16.0,29.55,SSW,202,3.5,11.2,46,0.00,,,0.00,Rainwise IP-100,2013-03-21 13:49:00,
2013-03-21 09:54:00,32.6,16.0,29.55,SSW,202,4.2,8.2,46,0.00,,,0.00,Rainwise IP-100,2013-03-21 13:54:00,
2013-03-21 09:59:00,32.5,16.0,29.55,SSW,202,2.3,8.6,46,0.00,,,0.00,Rainwise IP-100,2013-03-21 13:59:00,
2013-03-21 10:04:00,32.6,16.0,29.55,SSW,202,1.2,9.3,46,0.00,,,0.00,Rainwise IP-100,2013-03-21 14:04:00,
2013-03-21 10:09:00,32.8,16.0,29.55,SSW,202,2.1,5.4,46,0.00,,,0.00,Rainwise IP-100,2013-03-21 14:09:00,
2013-03-21 10:15:00,32.9,16.0,29.55,SSW,202,0.0,7.0,46,0.00,,,0.00,Rainwise IP-100,2013-03-21 14:15:00,
2013-03-21 10:20:00,33.1,16.0,29.54,SSW,202,4.9,5.6,46,0.00,,,0.00,Rainwise IP-100,2013-03-21 14:20:00,
2013-03-21 10:25:00,33.3,16.0,29.54,SSW,202,0.0,6.1,47,0.00,,,0.00,Rainwise IP-100,2013-03-21 14:25:00,
2013-03-21 10:30:00,33.4,16.0,29.54,SSW,202,3.7,7.9,46,0.00,,,0.00,Rainwise IP-100,2013-03-21 14:30:00,
2013-03-21 10:35:00,33.4,16.0,29.54,SSW,202,2.6,8.2,46,0.00,,,0.00,Rainwise IP-100,2013-03-21 14:35:00,
2013-03-21 10:40:00,33.2,16.0,29.54,SSW,202,2.1,6.8,46,0.00,,,0.00,Rainwise IP-100,2013-03-21 14:40:00,
2013-03-21 10:45:00,33.4,16.0,29.55,SSW,202,2.3,7.0,46,0.00,,,0.00,Rainwise IP-100,2013-03-21 14:45:00,
2013-03-21 10:50:00,33.8,16.0,29.55,SSW,202,1.2,7.0,46,0.00,,,0.00,Rainwise IP-100,2013-03-21 14:50:00,
2013-03-21 10:55:00,33.9,16.0,29.55,SSW,202,2.6,4.9,45,0.00,,,0.00,Rainwise IP-100,2013-03-21 14:55:00,
2013-03-21 11:00:00,34.1,16.0,29.54,SSW,202,1.6,5.6,44,0.00,,,0.00,Rainwise IP-100,2013-03-21 15:00:00,
2013-03-21 11:05:00,34.1,16.0,29.55,SSW,202,1.6,8.6,44,0.00,,,0.00,Rainwise IP-100,2013-03-21 15:05:00,
2013-03-21 11:10:00,34.2,16.0,29.55,SSW,202,3.0,7.5,44,0.00,,,0.00,Rainwise IP-100,2013-03-21 15:10:00,
2013-03-21 11:16:00,34.6,16.0,29.54,SSW,202,4.0,8.9,44,0.00,,,0.00,Rainwise IP-100,2013-03-21 15:16:00,
2013-03-21 11:21:00,34.8,16.0,29.55,SSW,202,2.1,13.1,43,0.00,,,0.00,Rainwise IP-100,2013-03-21 15:21:00,
2013-03-21 11:26:00,34.7,16.0,29.55,SSW,202,4.2,6.8,43,0.00,,,0.00,Rainwise IP-100,2013-03-21 15:26:00,
2013-03-21 11:32:00,34.6,16.0,29.55,SSW,202,1.4,7.0,43,0.00,,,0.00,Rainwise IP-100,2013-03-21 15:32:00,
2013-03-21 11:37:00,34.4,14.0,29.55,SSW,202,6.3,7.0,42,0.00,,,0.00,Rainwise IP-100,2013-03-21 15:37:00,
2013-03-21 11:43:00,34.2,14.0,29.54,SSW,202,0.0,8.9,42,0.00,,,0.00,Rainwise IP-100,2013-03-21 15:43:00,
2013-03-21 11:48:00,34.4,14.0,29.55,SSW,202,4.0,9.3,42,0.00,,,0.00,Rainwise IP-100,2013-03-21 15:48:00,
2013-03-21 11:53:00,34.7,14.0,29.54,SSW,202,1.9,8.9,42,0.00,,,0.00,Rainwise IP-100,2013-03-21 15:53:00,
2013-03-21 11:58:00,34.5,14.0,29.55,SSW,202,1.6,9.3,41,0.00,,,0.00,Rainwise IP-100,2013-03-21 15:58:00,
2013-03-21 12:03:00,34.1,14.0,29.55,SSW,202,4.0,9.6,41,0.00,,,0.00,Rainwise IP-100,2013-03-21 16:03:00,
2013-03-21 12:08:00,34.6,14.0,29.55,SSW,202,9.6,9.6,41,0.00,,,0.00,Rainwise IP-100,2013-03-21 16:08:00,
2013-03-21 12:13:00,34.5,14.0,29.55,SSW,202,3.7,11.4,41,0.00,,,0.00,Rainwise IP-100,2013-03-21 16:13:00,
2013-03-21 12:19:00,34.4,14.0,29.54,SSW,202,1.6,6.1,41,0.00,,,0.00,Rainwise IP-100,2013-03-21 16:19:00,
2013-03-21 12:24:00,35.3,14.0,29.54,SSW,202,2.1,5.4,41,0.00,,,0.00,Rainwise IP-100,2013-03-21 16:24:00,
2013-03-21 12:29:00,36.4,16.0,29.54,SSW,202,6.5,7.7,41,0.00,,,0.00,Rainwise IP-100,2013-03-21 16:29:00,
2013-03-21 12:34:00,36.0,14.0,29.54,SSW,202,1.2,11.0,40,0.00,,,0.00,Rainwise IP-100,2013-03-21 16:34:00,
2013-03-21 12:39:00,35.1,14.0,29.53,SSW,202,0.0,9.1,39,0.00,,,0.00,Rainwise IP-100,2013-03-21 16:39:00,
2013-03-21 12:44:00,35.0,14.0,29.54,SSW,202,2.1,10.7,39,0.00,,,0.00,Rainwise IP-100,2013-03-21 16:44:00,
2013-03-21 12:49:00,34.8,14.0,29.54,SSW,202,5.8,8.6,40,0.00,,,0.00,Rainwise IP-100,2013-03-21 16:49:00,
2013-03-21 12:54:00,34.8,14.0,29.53,SSW,202,5.1,8.9,40,0.00,,,0.00,Rainwise IP-100,2013-03-21 16:54:00,
2013-03-21 12:59:00,35.3,14.0,29.53,SSW,202,2.1,11.2,40,0.00,,,0.00,Rainwise IP-100,2013-03-21 16:59:00,
2013-03-21 13:04:00,36.8,16.0,29.53,SSW,202,4.0,6.1,39,0.00,,,0.00,Rainwise IP-100,2013-03-21 17:04:00,
2013-03-21 13:09:00,37.2,14.0,29.53,SSW,202,3.3,12.6,38,0.00,,,0.00,Rainwise IP-100,2013-03-21 17:09:00,
2013-03-21 13:14:00,35.9,14.0,29.53,SSW,202,1.4,9.3,38,0.00,,,0.00,Rainwise IP-100,2013-03-21 17:14:00,
2013-03-21 13:20:00,35.4,14.0,29.53,SSW,202,3.3,12.1,38,0.00,,,0.00,Rainwise IP-100,2013-03-21 17:20:00,
2013-03-21 13:25:00,34.9,14.0,29.53,SSW,202,0.0,10.0,38,0.00,,,0.00,Rainwise IP-100,2013-03-21 17:25:00,
2013-03-21 13:30:00,35.0,14.0,29.53,SSW,202,4.9,5.6,38,0.00,,,0.00,Rainwise IP-100,2013-03-21 17:30:00,
2013-03-21 13:35:00,35.7,14.0,29.53,SSW,202,2.8,7.2,38,0.00,,,0.00,Rainwise IP-100,2013-03-21 17:35:00,
2013-03-21 13:40:00,35.4,14.0,29.54,SSW,202,1.9,10.0,39,0.00,,,0.00,Rainwise IP-100,2013-03-21 17:40:00,
2013-03-21 13:45:00,34.7,14.0,29.53,SSW,202,1.6,8.2,39,0.00,,,0.00,Rainwise IP-100,2013-03-21 17:45:00,
2013-03-21 13:50:00,34.5,14.0,29.53,SSW,202,1.4,8.6,40,0.00,,,0.00,Rainwise IP-100,2013-03-21 17:50:00,
2013-03-21 13:58:00,34.5,14.0,29.52,SSW,202,1.4,7.7,40,0.00,,,0.00,Rainwise IP-100,2013-03-21 17:58:00,
2013-03-21 14:03:00,34.7,14.0,29.52,SSW,202,4.0,9.1,40,0.00,,,0.00,Rainwise IP-100,2013-03-21 18:03:00,
2013-03-21 14:08:00,34.5,14.0,29.52,SSW,202,2.1,11.0,39,0.00,,,0.00,Rainwise IP-100,2013-03-21 18:08:00,
2013-03-21 14:13:00,34.4,14.0,29.52,SSW,202,4.0,8.2,38,0.00,,,0.00,Rainwise IP-100,2013-03-21 18:13:00,
2013-03-21 14:19:00,34.8,14.0,29.52,SSW,202,1.9,5.8,38,0.00,,,0.00,Rainwise IP-100,2013-03-21 18:19:00,
2013-03-21 14:24:00,35.3,14.0,29.52,SSW,202,1.9,6.8,38,0.00,,,0.00,Rainwise IP-100,2013-03-21 18:24:00,
2013-03-21 14:29:00,35.4,11.0,29.52,SSW,202,2.6,7.9,37,0.00,,,0.00,Rainwise IP-100,2013-03-21 18:29:00,
2013-03-21 14:34:00,35.1,11.0,29.52,SSW,202,3.7,9.8,37,0.00,,,0.00,Rainwise IP-100,2013-03-21 18:34:00,
2013-03-21 14:39:00,35.2,11.0,29.51,SSW,202,7.0,8.2,37,0.00,,,0.00,Rainwise IP-100,2013-03-21 18:39:00,
2013-03-21 14:44:00,35.8,14.0,29.51,SSW,202,5.8,8.2,37,0.00,,,0.00,Rainwise IP-100,2013-03-21 18:44:00,
2013-03-21 14:49:00,36.0,14.0,29.51,SSW,202,1.9,8.2,36,0.00,,,0.00,Rainwise IP-100,2013-03-21 18:49:00,
2013-03-21 14:54:00,35.3,11.0,29.51,SSW,202,4.7,7.9,36,0.00,,,0.00,Rainwise IP-100,2013-03-21 18:54:00,
2013-03-21 14:59:00,35.0,11.0,29.51,SSW,202,0.0,7.2,36,0.00,,,0.00,Rainwise IP-100,2013-03-21 18:59:00,
2013-03-21 15:04:00,35.0,11.0,29.52,SSW,202,1.9,7.0,37,0.00,,,0.00,Rainwise IP-100,2013-03-21 19:04:00,
2013-03-21 15:09:00,35.0,11.0,29.52,SSW,202,1.6,8.2,37,0.00,,,0.00,Rainwise IP-100,2013-03-21 19:09:00,
2013-03-21 15:14:00,35.0,11.0,29.52,SSW,202,3.0,7.0,36,0.00,,,0.00,Rainwise IP-100,2013-03-21 19:14:00,
2013-03-21 15:20:00,34.8,11.0,29.51,SSW,202,0.0,10.3,36,0.00,,,0.00,Rainwise IP-100,2013-03-21 19:20:00,
2013-03-21 15:25:00,35.1,11.0,29.51,SSW,202,4.0,7.2,37,0.00,,,0.00,Rainwise IP-100,2013-03-21 19:25:00,
2013-03-21 15:30:00,35.5,14.0,29.53,SSW,202,6.5,9.8,37,0.00,,,0.00,Rainwise IP-100,2013-03-21 19:30:00,
2013-03-21 15:35:00,35.5,14.0,29.52,SSW,202,1.4,6.5,38,0.00,,,0.00,Rainwise IP-100,2013-03-21 19:35:00,
2013-03-21 15:40:00,35.7,14.0,29.52,SSW,202,5.1,6.3,38,0.00,,,0.00,Rainwise IP-100,2013-03-21 19:40:00,
2013-03-21 15:45:00,35.6,14.0,29.52,SSW,202,3.5,7.0,38,0.00,,,0.00,Rainwise IP-100,2013-03-21 19:45:00,
2013-03-21 15:50:00,34.9,14.0,29.51,SSW,202,11.0,11.0,38,0.00,,,0.00,Rainwise IP-100,2013-03-21 19:50:00,
2013-03-21 15:55:00,34.2,14.0,29.52,SSW,202,3.3,11.0,38,0.00,,,0.00,Rainwise IP-100,2013-03-21 19:55:00,
2013-03-21 16:00:00,34.1,14.0,29.52,SSW,202,2.1,11.4,38,0.00,,,0.00,Rainwise IP-100,2013-03-21 20:00:00,
2013-03-21 16:05:00,33.9,14.0,29.52,SSW,202,2.1,10.7,38,0.00,,,0.00,Rainwise IP-100,2013-03-21 20:05:00,
2013-03-21 16:10:00,33.9,14.0,29.52,SSW,202,4.2,6.3,38,0.00,,,0.00,Rainwise IP-100,2013-03-21 20:10:00,
2013-03-21 16:15:00,34.0,14.0,29.52,SSW,202,2.3,8.2,39,0.00,,,0.00,Rainwise IP-100,2013-03-21 20:15:00,
2013-03-21 16:21:00,34.1,14.0,29.52,SSW,202,4.0,8.4,39,0.00,,,0.00,Rainwise IP-100,2013-03-21 20:21:00,
2013-03-21 16:26:00,34.1,14.0,29.52,SSW,202,4.4,10.5,39,0.00,,,0.00,Rainwise IP-100,2013-03-21 20:26:00,
2013-03-21 16:31:00,33.8,14.0,29.52,SSW,202,2.3,8.2,38,0.00,,,0.00,Rainwise IP-100,2013-03-21 20:31:00,
2013-03-21 16:37:00,33.9,14.0,29.53,SSW,202,0.0,6.3,39,0.00,,,0.00,Rainwise IP-100,2013-03-21 20:37:00,
2013-03-21 16:42:00,34.0,14.0,29.53,SSW,202,5.6,11.2,38,0.00,,,0.00,Rainwise IP-100,2013-03-21 20:42:00,
2013-03-21 16:47:00,33.8,11.0,29.53,SSW,202,1.2,12.6,37,0.00,,,0.00,Rainwise IP-100,2013-03-21 20:47:00,
2013-03-21 16:53:00,33.9,11.0,29.53,SSW,202,4.2,8.4,37,0.00,,,0.00,Rainwise IP-100,2013-03-21 20:53:00,
2013-03-21 16:58:00,34.2,11.0,29.53,SSW,202,2.1,5.8,37,0.00,,,0.00,Rainwise IP-100,2013-03-21 20:58:00,
2013-03-21 17:04:00,34.3,11.0,29.53,SSW,202,7.5,8.4,37,0.00,,,0.00,Rainwise IP-100,2013-03-21 21:04:00,
2013-03-21 17:09:00,34.1,11.0,29.53,SSW,202,1.2,8.9,37,0.00,,,0.00,Rainwise IP-100,2013-03-21 21:09:00,
2013-03-21 17:14:00,33.9,11.0,29.53,SSW,202,4.2,4.4,36,0.00,,,0.00,Rainwise IP-100,2013-03-21 21:14:00,
2013-03-21 17:19:00,33.9,11.0,29.53,SSW,202,1.2,7.9,36,0.00,,,0.00,Rainwise IP-100,2013-03-21 21:19:00,
2013-03-21 17:25:00,34.0,11.0,29.54,SSW,202,2.3,8.4,36,0.00,,,0.00,Rainwise IP-100,2013-03-21 21:25:00,
2013-03-21 17:30:00,33.9,11.0,29.53,SSW,202,3.3,9.1,36,0.00,,,0.00,Rainwise IP-100,2013-03-21 21:30:00,
2013-03-21 17:35:00,33.8,11.0,29.54,SSW,202,5.6,10.5,36,0.00,,,0.00,Rainwise IP-100,2013-03-21 21:35:00,
2013-03-21 17:40:00,33.8,11.0,29.54,SSW,202,3.7,11.7,36,0.00,,,0.00,Rainwise IP-100,2013-03-21 21:40:00,
2013-03-21 17:45:00,33.8,11.0,29.54,SSW,202,3.3,10.3,36,0.00,,,0.00,Rainwise IP-100,2013-03-21 21:45:00,
2013-03-21 17:50:00,33.8,11.0,29.55,SSW,202,1.4,12.1,37,0.00,,,0.00,Rainwise IP-100,2013-03-21 21:50:00,
2013-03-21 17:55:00,33.7,11.0,29.55,SSW,202,3.5,12.1,37,0.00,,,0.00,Rainwise IP-100,2013-03-21 21:55:00,
2013-03-21 18:00:00,33.6,11.0,29.55,SSW,202,2.1,7.7,37,0.00,,,0.00,Rainwise IP-100,2013-03-21 22:00:00,
2013-03-21 18:05:00,33.6,11.0,29.55,SSW,202,3.7,5.8,37,0.00,,,0.00,Rainwise IP-100,2013-03-21 22:05:00,
2013-03-21 18:10:00,33.6,11.0,29.56,SSW,202,1.4,6.3,37,0.00,,,0.00,Rainwise IP-100,2013-03-21 22:10:00,
2013-03-21 18:15:00,33.5,11.0,29.56,SSW,202,6.3,7.2,37,0.00,,,0.00,Rainwise IP-100,2013-03-21 22:15:00,
2013-03-21 18:20:00,33.2,11.0,29.56,SSW,202,5.4,10.5,37,0.00,,,0.00,Rainwise IP-100,2013-03-21 22:20:00,
2013-03-21 18:26:00,33.0,11.0,29.56,SSW,202,4.0,10.7,37,0.00,,,0.00,Rainwise IP-100,2013-03-21 22:26:00,
2013-03-21 18:31:00,32.9,11.0,29.56,SSW,202,1.9,10.3,36,0.00,,,0.00,Rainwise IP-100,2013-03-21 22:31:00,
2013-03-21 18:39:00,32.7,11.0,29.57,SSW,202,3.0,7.5,36,0.00,,,0.00,Rainwise IP-100,2013-03-21 22:39:00,
2013-03-21 18:44:00,32.6,11.0,29.57,SSW,202,1.2,9.8,37,0.00,,,0.00,Rainwise IP-100,2013-03-21 22:44:00,
2013-03-21 18:49:00,32.6,11.0,29.57,SSW,202,1.6,9.8,37,0.00,,,0.00,Rainwise IP-100,2013-03-21 22:49:00,
2013-03-21 18:54:00,32.6,11.0,29.57,SSW,202,1.9,6.3,37,0.00,,,0.00,Rainwise IP-100,2013-03-21 22:54:00,
2013-03-21 18:59:00,32.5,11.0,29.57,SSW,202,0.0,9.1,36,0.00,,,0.00,Rainwise IP-100,2013-03-21 22:59:00,
2013-03-21 19:04:00,32.3,8.0,29.57,SSW,202,3.7,6.3,36,0.00,,,0.00,Rainwise IP-100,2013-03-21 23:04:00,
2013-03-21 19:09:00,32.2,8.0,29.58,SSW,202,5.4,13.1,36,0.00,,,0.00,Rainwise IP-100,2013-03-21 23:09:00,
2013-03-21 19:14:00,32.0,8.0,29.58,SSW,202,5.6,11.4,36,0.00,,,0.00,Rainwise IP-100,2013-03-21 23:14:00,
2013-03-21 19:19:00,32.0,8.0,29.58,SSW,202,0.0,8.4,36,0.00,,,0.00,Rainwise IP-100,2013-03-21 23:19:00,
2013-03-21 19:25:00,31.9,8.0,29.58,SSW,202,1.2,8.4,36,0.00,,,0.00,Rainwise IP-100,2013-03-21 23:25:00,
2013-03-21 19:30:00,31.8,11.0,29.58,SSW,202,3.3,5.8,37,0.00,,,0.00,Rainwise IP-100,2013-03-21 23:30:00,
2013-03-21 19:35:00,31.8,11.0,29.58,SSW,202,6.8,7.7,37,0.00,,,0.00,Rainwise IP-100,2013-03-21 23:35:00,
2013-03-21 19:40:00,31.8,11.0,29.59,SSW,202,0.0,9.6,37,0.00,,,0.00,Rainwise IP-100,2013-03-21 23:40:00,
2013-03-21 19:45:00,31.7,11.0,29.59,SSW,202,1.4,4.2,37,0.00,,,0.00,Rainwise IP-100,2013-03-21 23:45:00,
2013-03-21 19:50:00,31.5,11.0,29.59,SSW,202,3.3,6.1,38,0.00,,,0.00,Rainwise IP-100,2013-03-21 23:50:00,
2013-03-21 19:55:00,31.4,8.0,29.59,SSW,202,0.0,6.8,38,0.00,,,0.00,Rainwise IP-100,2013-03-21 23:55:00,
2013-03-21 20:00:00,31.2,8.0,29.59,SSW,202,1.4,3.7,38,0.00,,,0.00,Rainwise IP-100,2013-03-22 00:00:00,
2013-03-21 20:05:00,31.1,11.0,29.60,SSW,202,2.8,4.2,39,0.00,,,0.00,Rainwise IP-100,2013-03-22 00:05:00,
2013-03-21 20:10:00,31.0,11.0,29.60,SSW,202,1.9,8.2,39,0.00,,,0.00,Rainwise IP-100,2013-03-22 00:10:00,
2013-03-21 20:15:00,31.0,11.0,29.60,SSW,202,4.7,6.1,39,0.00,,,0.00,Rainwise IP-100,2013-03-22 00:15:00,
2013-03-21 20:20:00,31.0,11.0,29.60,SSW,202,0.0,7.5,39,0.00,,,0.00,Rainwise IP-100,2013-03-22 00:20:00,
2013-03-21 20:26:00,30.9,11.0,29.60,SSW,202,4.2,8.2,39,0.00,,,0.00,Rainwise IP-100,2013-03-22 00:26:00,
2013-03-21 20:31:00,30.8,11.0,29.61,SSW,202,2.1,7.5,39,0.00,,,0.00,Rainwise IP-100,2013-03-22 00:31:00,
2013-03-21 20:37:00,30.7,11.0,29.61,SSW,202,5.1,6.5,39,0.00,,,0.00,Rainwise IP-100,2013-03-22 00:37:00,
2013-03-21 20:42:00,30.4,11.0,29.61,SSW,202,2.6,5.1,39,0.00,,,0.00,Rainwise IP-100,2013-03-22 00:42:00,
2013-03-21 20:47:00,30.3,11.0,29.62,SSW,202,1.9,5.8,40,0.00,,,0.00,Rainwise IP-100,2013-03-22 00:47:00,
2013-03-21 20:52:00,30.3,11.0,29.62,SSW,202,2.8,4.4,40,0.00,,,0.00,Rainwise IP-100,2013-03-22 00:52:00,
2013-03-21 20:57:00,30.1,11.0,29.61,SSW,202,1.4,3.7,40,0.00,,,0.00,Rainwise IP-100,2013-03-22 00:57:00,
2013-03-21 21:02:00,30.1,11.0,29.62,SSW,202,3.5,5.6,40,0.00,,,0.00,Rainwise IP-100,2013-03-22 01:02:00,
2013-03-21 21:07:00,30.1,11.0,29.62,SSW,202,2.3,4.7,40,0.00,,,0.00,Rainwise IP-100,2013-03-22 01:07:00,
2013-03-21 21:12:00,30.0,11.0,29.63,SSW,202,1.6,4.7,41,0.00,,,0.00,Rainwise IP-100,2013-03-22 01:12:00,
2013-03-21 21:17:00,29.8,11.0,29.63,SSW,202,2.1,7.5,41,0.00,,,0.00,Rainwise IP-100,2013-03-22 01:17:00,
2013-03-21 21:22:00,29.7,11.0,29.63,SSW,202,1.6,4.7,41,0.00,,,0.00,Rainwise IP-100,2013-03-22 01:22:00,
2013-03-21 21:28:00,29.7,11.0,29.63,SSW,202,1.9,5.4,41,0.00,,,0.00,Rainwise IP-100,2013-03-22 01:28:00,
2013-03-21 21:33:00,29.8,11.0,29.63,SSW,202,0.0,6.8,41,0.00,,,0.00,Rainwise IP-100,2013-03-22 01:33:00,
2013-03-21 21:38:00,29.7,11.0,29.63,SSW,202,2.3,3.5,41,0.00,,,0.00,Rainwise IP-100,2013-03-22 01:38:00,
2013-03-21 21:43:00,29.5,11.0,29.64,SSW,202,1.2,4.0,42,0.00,,,0.00,Rainwise IP-100,2013-03-22 01:43:00,
2013-03-21 21:48:00,29.3,11.0,29.64,SSW,202,0.0,3.0,42,0.00,,,0.00,Rainwise IP-100,2013-03-22 01:48:00,
2013-03-21 21:53:00,29.3,11.0,29.64,SSW,202,0.0,3.0,42,0.00,,,0.00,Rainwise IP-100,2013-03-22 01:53:00,
2013-03-21 21:58:00,29.2,11.0,29.64,SSW,202,0.0,1.2,42,0.00,,,0.00,Rainwise IP-100,2013-03-22 01:58:00,
2013-03-21 22:03:00,28.9,11.0,29.64,SSW,202,0.0,1.9,43,0.00,,,0.00,Rainwise IP-100,2013-03-22 02:03:00,
2013-03-21 22:08:00,28.8,11.0,29.64,SSW,202,0.0,2.3,44,0.00,,,0.00,Rainwise IP-100,2013-03-22 02:08:00,
2013-03-21 22:13:00,28.8,11.0,29.64,SSW,202,0.0,1.9,44,0.00,,,0.00,Rainwise IP-100,2013-03-22 02:13:00,
2013-03-21 22:18:00,28.8,11.0,29.64,SSW,202,0.0,3.7,44,0.00,,,0.00,Rainwise IP-100,2013-03-22 02:18:00,
2013-03-21 22:23:00,28.6,11.0,29.64,SSW,202,0.0,1.9,45,0.00,,,0.00,Rainwise IP-100,2013-03-22 02:23:00,
2013-03-21 22:29:00,28.5,11.0,29.64,SSW,202,0.0,2.1,45,0.00,,,0.00,Rainwise IP-100,2013-03-22 02:29:00,
2013-03-21 22:34:00,28.5,11.0,29.64,SSW,202,0.0,1.4,45,0.00,,,0.00,Rainwise IP-100,2013-03-22 02:34:00,
2013-03-21 22:39:00,28.4,11.0,29.64,SSW,202,1.6,1.9,46,0.00,,,0.00,Rainwise IP-100,2013-03-22 02:39:00,
2013-03-21 22:44:00,28.3,11.0,29.64,SSW,202,0.0,3.0,46,0.00,,,0.00,Rainwise IP-100,2013-03-22 02:44:00,
2013-03-21 22:49:00,28.4,11.0,29.64,SSW,202,0.0,3.0,46,0.00,,,0.00,Rainwise IP-100,2013-03-22 02:49:00,
2013-03-21 22:55:00,28.6,11.0,29.64,SSW,202,1.2,4.2,45,0.00,,,0.00,Rainwise IP-100,2013-03-22 02:55:00,
2013-03-21 23:00:00,28.8,11.0,29.64,SSW,202,1.4,5.4,45,0.00,,,0.00,Rainwise IP-100,2013-03-22 03:00:00,
2013-03-21 23:05:00,29.0,11.0,29.64,SSW,202,1.2,4.7,45,0.00,,,0.00,Rainwise IP-100,2013-03-22 03:05:00,
2013-03-21 23:10:00,29.0,11.0,29.64,SSW,202,0.0,3.3,45,0.00,,,0.00,Rainwise IP-100,2013-03-22 03:10:00,
2013-03-21 23:15:00,28.8,11.0,29.65,SSW,202,0.0,2.8,45,0.00,,,0.00,Rainwise IP-100,2013-03-22 03:15:00,
2013-03-21 23:20:00,28.6,11.0,29.64,SSW,202,0.0,3.5,46,0.00,,,0.00,Rainwise IP-100,2013-03-22 03:20:00,
2013-03-21 23:25:00,28.6,11.0,29.65,SSW,202,1.4,4.0,46,0.00,,,0.00,Rainwise IP-100,2013-03-22 03:25:00,
2013-03-21 23:31:00,28.8,11.0,29.64,SSW,202,1.4,4.9,45,0.00,,,0.00,Rainwise IP-100,2013-03-22 03:31:00,
2013-03-21 23:36:00,29.0,11.0,29.64,SSW,202,0.0,5.4,45,0.00,,,0.00,Rainwise IP-100,2013-03-22 03:36:00,
2013-03-21 23:41:00,28.9,11.0,29.65,SSW,202,1.2,3.5,45,0.00,,,0.00,Rainwise IP-100,2013-03-22 03:41:00,
2013-03-21 23:47:00,29.0,11.0,29.65,SSW,202,1.6,6.3,45,0.00,,,0.00,Rainwise IP-100,2013-03-22 03:47:00,
2013-03-21 23:52:00,29.2,11.0,29.65,SSW,202,0.0,6.3,45,0.00,,,0.00,Rainwise IP-100,2013-03-22 03:52:00,
2013-03-21 23:57:00,29.1,11.0,29.65,SSW,202,2.8,4.0,45,0.00,,,0.00,Rainwise IP-100,2013-03-22 03:57:00,